Hourly Weather Ruda

Today, 16 April, Friday

Time Temperature Precipitation Wind Pressure Humidity
00:00 0°C° 0.2 mm 3 mps 748 mmHg 98%
01:00 0°C° 0 mm 3 mps 748 mmHg 98%
02:00 0°C° 0.2 mm 3 mps 748 mmHg 98%
03:00 0°C° 0.2 mm 3 mps 748 mmHg 98%
04:00 0°C° 0.2 mm 3 mps 748 mmHg 98%
05:00 0°C° 0.2 mm 3 mps 748 mmHg 98%
06:00 0°C° 0.2 mm 3 mps 748 mmHg 98%
07:00 0°C° 0.2 mm 3 mps 748 mmHg 98%
08:00 0°C° 0.2 mm 3 mps 748 mmHg 98%
09:00 +1°C° 0.2 mm 3 mps 748 mmHg 98%
10:00 +1°C° 0.2 mm 3 mps 748 mmHg 98%
11:00 0°C° 0.1 mm 4 mps 748 mmHg 98%
12:00 0°C° 0.1 mm 4 mps 749 mmHg 98%
13:00 0°C° 0.1 mm 4 mps 749 mmHg 98%
14:00 0°C° 0.1 mm 4 mps 749 mmHg 98%
15:00 0°C° 0.1 mm 4 mps 749 mmHg 98%
16:00 0°C° 0.1 mm 4 mps 748 mmHg 98%
17:00 +1°C° 0.1 mm 3 mps 748 mmHg 98%
18:00 +1°C° 0.1 mm 3 mps 748 mmHg 98%
19:00 +2°C° 0.1 mm 3 mps 748 mmHg 98%
20:00 +2°C° 0.4 mm 3 mps 748 mmHg 98%
21:00 +2°C° 0.4 mm 3 mps 748 mmHg 98%
22:00 +2°C° 0.4 mm 3 mps 748 mmHg 98%
23:00 +2°C° 0.7 mm 3 mps 748 mmHg 98%

Tomorrow, 17 April, Saturday

Time Temperature Precipitation Wind Pressure Humidity
00:00 +2°C° 0.7 mm 3 mps 748 mmHg 98%
01:00 +2°C° 0.7 mm 3 mps 748 mmHg 98%
02:00 +2°C° 0.3 mm 3 mps 748 mmHg 98%
03:00 +3°C° 0.3 mm 2 mps 748 mmHg 98%
04:00 +3°C° 0.3 mm 2 mps 748 mmHg 98%
05:00 +3°C° 0.2 mm 2 mps 748 mmHg 98%
06:00 +3°C° 0.2 mm 2 mps 748 mmHg 98%
07:00 +2°C° 0.2 mm 3 mps 748 mmHg 98%
08:00 +3°C° 0.2 mm 2 mps 748 mmHg 98%
09:00 +3°C° 0.2 mm 2 mps 748 mmHg 98%
10:00 +3°C° 0.2 mm 2 mps 748 mmHg 98%
11:00 +3°C° 0.3 mm 2 mps 748 mmHg 98%
12:00 +3°C° 0.3 mm 2 mps 748 mmHg 98%
13:00 +4°C° 0.3 mm 2 mps 748 mmHg 97%
14:00 +4°C° 0.1 mm 2 mps 748 mmHg 98%
15:00 +5°C° 0.1 mm 1 mps 748 mmHg 98%
16:00 +5°C° 0.1 mm 1 mps 748 mmHg 98%
17:00 +5°C° 0 mm 1 mps 748 mmHg 98%
18:00 +5°C° 0 mm 1 mps 748 mmHg 98%
19:00 +5°C° 0 mm 1 mps 748 mmHg 98%
20:00 +5°C° 0.1 mm 1 mps 748 mmHg 98%
21:00 +5°C° 0.1 mm 1 mps 748 mmHg 98%
22:00 +5°C° 0.1 mm 1 mps 748 mmHg 98%
23:00 +5°C° 0.1 mm 1 mps 748 mmHg 98%

Day after tomorrow, 18 April, Sunday

Time Temperature Precipitation Wind Pressure Humidity
00:00 +4°C° 0.1 mm 0 mps 748 mmHg 98%
01:00 +4°C° 0.1 mm 0 mps 748 mmHg 98%
02:00 +4°C° 0 mm 0 mps 747 mmHg 98%
03:00 +4°C° 0 mm 0 mps 747 mmHg 98%
04:00 +4°C° 0 mm 0 mps 747 mmHg 98%
05:00 +4°C° 0 mm 0 mps 747 mmHg 98%
06:00 +5°C° 0 mm 1 mps 747 mmHg 97%
07:00 +5°C° 0 mm 1 mps 747 mmHg 97%
08:00 +6°C° 0 mm 1 mps 747 mmHg 94%
09:00 +7°C° 0 mm 1 mps 747 mmHg 91%
10:00 +6°C° 0 mm 2 mps 747 mmHg 88%
11:00 +7°C° 0 mm 2 mps 747 mmHg 82%
12:00 +8°C° 0 mm 2 mps 747 mmHg 76%
13:00 +9°C° 0 mm 2 mps 747 mmHg 70%
14:00 +9°C° 0 mm 2 mps 747 mmHg 72%
15:00 +9°C° 0 mm 2 mps 747 mmHg 73%
16:00 +9°C° 0 mm 2 mps 747 mmHg 74%
17:00 +8°C° 0 mm 2 mps 747 mmHg 77%
18:00 +8°C° 0 mm 2 mps 747 mmHg 80%
19:00 +7°C° 0 mm 2 mps 747 mmHg 83%
20:00 +7°C° 0 mm 2 mps 747 mmHg 83%
21:00 +7°C° 0 mm 2 mps 747 mmHg 84%
22:00 +6°C° 0 mm 2 mps 747 mmHg 84%
23:00 +6°C° 0 mm 2 mps 746 mmHg 86%

19 April, Monday

Time Temperature Precipitation Wind Pressure Humidity
00:00 +6°C° 0 mm 2 mps 746 mmHg 87%
01:00 +6°C° 0 mm 2 mps 746 mmHg 89%
02:00 +6°C° 0 mm 2 mps 746 mmHg 90%
03:00 +5°C° 0 mm 2 mps 746 mmHg 91%
04:00 +5°C° 0 mm 2 mps 746 mmHg 92%
05:00 +6°C° 0 mm 2 mps 746 mmHg 91%
06:00 +6°C° 0 mm 2 mps 745 mmHg 90%
07:00 +7°C° 0 mm 2 mps 745 mmHg 89%
08:00 +8°C° 0.4 mm 2 mps 745 mmHg 89%
09:00 +8°C° 0.4 mm 2 mps 745 mmHg 88%
10:00 +9°C° 0.4 mm 3 mps 745 mmHg 88%
11:00 +9°C° 0.3 mm 3 mps 745 mmHg 86%
12:00 +10°C° 0.3 mm 3 mps 744 mmHg 85%
13:00 +10°C° 0.3 mm 3 mps 744 mmHg 84%
14:00 +10°C° 0.1 mm 3 mps 744 mmHg 83%
15:00 +10°C° 0.1 mm 3 mps 744 mmHg 82%
16:00 +10°C° 0.1 mm 3 mps 744 mmHg 81%
17:00 +9°C° 0.2 mm 2 mps 744 mmHg 83%
18:00 +9°C° 0.2 mm 2 mps 744 mmHg 85%
19:00 +9°C° 0.2 mm 1 mps 744 mmHg 87%
20:00 +9°C° 0.1 mm 1 mps 744 mmHg 88%
21:00 +8°C° 0.1 mm 1 mps 744 mmHg 89%
22:00 +8°C° 0.1 mm 1 mps 744 mmHg 91%
23:00 +8°C° 0 mm 1 mps 744 mmHg 91%

20 April, Tuesday

Time Temperature Precipitation Wind Pressure Humidity
00:00 +6°C° 0 mm 2 mps 744 mmHg 92%
01:00 +6°C° 0 mm 2 mps 744 mmHg 93%
02:00 +6°C° 0 mm 2 mps 744 mmHg 93%
03:00 +5°C° 0 mm 2 mps 744 mmHg 93%
04:00 +5°C° 0 mm 2 mps 744 mmHg 93%
05:00 +6°C° 0 mm 2 mps 744 mmHg 90%
06:00 +6°C° 0 mm 2 mps 744 mmHg 88%
07:00 +7°C° 0 mm 2 mps 744 mmHg 85%
08:00 +8°C° 0.2 mm 2 mps 744 mmHg 78%
09:00 +9°C° 0.2 mm 3 mps 744 mmHg 71%
10:00 +10°C° 0.2 mm 3 mps 744 mmHg 64%
11:00 +11°C° 0.1 mm 3 mps 743 mmHg 62%
12:00 +11°C° 0.1 mm 3 mps 743 mmHg 59%
13:00 +12°C° 0.1 mm 3 mps 743 mmHg 56%
14:00 +12°C° 0.1 mm 3 mps 743 mmHg 56%
15:00 +12°C° 0.1 mm 3 mps 743 mmHg 56%
16:00 +12°C° 0.1 mm 3 mps 742 mmHg 57%
17:00 +11°C° 0 mm 3 mps 743 mmHg 62%
18:00 +9°C° 0 mm 2 mps 743 mmHg 67%
19:00 +8°C° 0 mm 2 mps 743 mmHg 72%
20:00 +8°C° 0 mm 1 mps 743 mmHg 74%
21:00 +8°C° 0 mm 1 mps 743 mmHg 76%
22:00 +6°C° 0 mm 0 mps 743 mmHg 77%
23:00 +5°C° 0 mm 0 mps 743 mmHg 79%

21 April, Wednesday

Time Temperature Precipitation Wind Pressure Humidity
00:00 +6°C° 0 mm 1 mps 743 mmHg 81%
01:00 +6°C° 0 mm 1 mps 743 mmHg 83%
02:00 +5°C° 0 mm 1 mps 743 mmHg 84%
03:00 +5°C° 0 mm 1 mps 743 mmHg 85%
04:00 +5°C° 0 mm 1 mps 743 mmHg 86%
05:00 +6°C° 0 mm 1 mps 743 mmHg 82%
06:00 +7°C° 0 mm 1 mps 743 mmHg 78%
07:00 +8°C° 0 mm 1 mps 743 mmHg 74%
08:00 +10°C° 0 mm 1 mps 743 mmHg 68%
09:00 +12°C° 0 mm 1 mps 743 mmHg 62%
10:00 +14°C° 0 mm 1 mps 743 mmHg 56%
11:00 +14°C° 0 mm 1 mps 743 mmHg 53%
12:00 +15°C° 0 mm 2 mps 742 mmHg 49%
13:00 +16°C° 0 mm 2 mps 742 mmHg 45%
14:00 +16°C° 0 mm 2 mps 742 mmHg 47%
15:00 +16°C° 0 mm 2 mps 742 mmHg 48%
16:00 +16°C° 0 mm 1 mps 742 mmHg 49%
17:00 +14°C° 0 mm 1 mps 742 mmHg 54%
18:00 +13°C° 0 mm 1 mps 742 mmHg 59%
19:00 +11°C° 0 mm 1 mps 742 mmHg 65%
20:00 +10°C° 0 mm 2 mps 742 mmHg 67%
21:00 +9°C° 0 mm 2 mps 742 mmHg 69%
22:00 +8°C° 0 mm 2 mps 742 mmHg 71%
23:00 +8°C° 0 mm 2 mps 742 mmHg 73%
Show more